Location: Couloutre
(47.4081°N, 3.2259°E)
Time: 18:28:46
(UTC+00:00)

Meteor 2-4 Rocket - Pass Details

Date: 27 February 2020
Orbit: 800 x 908 km, 81.2° (Epoch: 27 March)

Event Time Altitude Azimuth Distance (km) Brightness Sun altitude
Rises 18:48:40 0° 352° (N) 3,529 7.1 -14.4°
Reaches altitude 10° 18:51:13 10° 357° (N) 2,593 6.3 -14.8°
Maximum altitude 18:57:00 52° 73° (ENE) 1,123 4.0 -15.8°
Drops below altitude 10° 19:02:45 10° 150° (SSE) 2,583 5.9 -16.7°
Enters shadow 19:03:46 - 152° (SSE) 2,952 6.2 -16.9°
